Location: Igon
(43.1667°N, 0.2333°W)
Time: 21:53:09
(UTC+00:00)

PSLV R/B - Pass Details

Date: 29 November 2020
Orbit: 568 x 598 km, 98.2° (Epoch: 20 January)

Event Time Altitude Azimuth Distance (km) Brightness Sun altitude
Rises 05:46:04 0° 178° (S) 2,807 7.7 -15.1°
Reaches altitude 10° 05:48:17 10° 184° (S) 1,907 6.7 -14.7°
Maximum altitude 05:52:18 49° 260° (W) 758 4.1 -14.0°
Drops below altitude 10° 05:56:19 10° 336° (NNW) 1,905 6.2 -13.3°
Enters shadow 05:56:28 - 336° (NNW) 1,969 6.3 -13.3°
